{"data":{"norad_id":57623,"intl_designator":"2023-119X","name":"STARLINK-30100","alt_names":[],"object_type":"PAYLOAD","status":"ACTIVE","operator":null,"country":"US","launch_date":"2023-08-11","launch_site_code":"AFETR","launch_vehicle":null,"mission":null,"orbit_class":"UNKNOWN","rcs_meters":null,"size_class":null,"mass_kg":null,"dimensions":null,"purposes":["comms"],"wikipedia_slug":null,"has_3d_model":false,"image_url":null,"decayed_at":null,"tle_current":{"epoch":"2026-09-20T03:11:35.736000Z","epoch_age_seconds":159391,"freshness":"FRESH","line1":"1 57623U 23119X   26263.13305250  .00000130  00000+0  14257-4 0  9993","line2":"2 57623  43.0006  63.4950 0000942 278.5635  81.5110 15.27576631172825","mean_motion":15.27576631,"eccentricity":9.42e-5,"inclination_deg":43.0006,"raan_deg":63.495,"arg_perigee_deg":278.5635,"mean_anomaly_deg":81.511,"bstar":1.4257e-5,"rev_number":17282,"period_min":94.26695661463,"perigee_km":482.41285937565,"apogee_km":483.70550873672,"semimajor_km":6861.1961840562,"source":"CELESTRAK","updated_at":"2026-09-21T09:00:33.664575Z"}}}